Time,TemperatureF,DewpointF,PressureIn,WindDirection,WindDirectionDegrees,WindSpeedMPH,WindSpeedGustMPH,Humidity,HourlyPrecipIn,Conditions,Clouds,dailyrainin,SoftwareType,DateUTC
2013-05-18 00:05:00,67.4,57.7,29.76,ESE,116,0.0,0.0,71,0.00,,,0.00,Wunderground v.1.15,2013-05-18 05:05:00,
2013-05-18 00:15:00,67.3,57.6,29.76,ESE,117,0.0,0.0,71,0.00,,,0.00,Wunderground v.1.15,2013-05-18 05:15:00,
2013-05-18 00:25:00,66.9,57.6,29.76,SE,130,0.0,0.0,72,0.00,,,0.00,Wunderground v.1.15,2013-05-18 05:25:00,
2013-05-18 00:30:00,66.9,57.6,29.76,SE,127,0.0,0.0,72,0.00,,,0.00,Wunderground v.1.15,2013-05-18 05:30:00,
2013-05-18 00:40:00,66.6,57.3,29.76,ESE,110,0.0,0.0,72,0.00,,,0.00,Wunderground v.1.15,2013-05-18 05:40:00,
2013-05-18 00:50:00,66.4,57.1,29.76,SE,130,0.0,0.0,72,0.00,,,0.00,Wunderground v.1.15,2013-05-18 05:50:00,
2013-05-18 01:00:00,66.3,57.4,29.76,SE,127,0.0,0.0,73,0.00,,,0.00,Wunderground v.1.15,2013-05-18 06:00:00,
2013-05-18 01:10:00,66.1,57.2,29.76,ESE,120,0.0,0.0,73,0.00,,,0.00,Wunderground v.1.15,2013-05-18 06:10:00,
2013-05-18 01:15:00,66.1,57.6,29.76,ESE,120,0.0,0.0,74,0.00,,,0.00,Wunderground v.1.15,2013-05-18 06:15:00,
2013-05-18 01:25:00,66.0,57.5,29.76,ESE,117,0.0,0.0,74,0.00,,,0.00,Wunderground v.1.15,2013-05-18 06:25:00,
2013-05-18 01:35:00,65.6,57.1,29.76,ESE,116,0.0,0.0,74,0.00,,,0.00,Wunderground v.1.15,2013-05-18 06:35:00,
2013-05-18 01:45:00,65.5,57.4,29.76,ESE,117,0.0,0.0,75,0.00,,,0.00,Wunderground v.1.15,2013-05-18 06:45:00,
2013-05-18 01:55:00,65.5,57.4,29.76,ESE,114,0.0,0.0,75,0.00,,,0.00,Wunderground v.1.15,2013-05-18 06:55:00,
2013-05-18 02:00:00,65.3,57.2,29.76,ESE,109,0.0,0.0,75,0.00,,,0.00,Wunderground v.1.15,2013-05-18 07:00:00,
2013-05-18 02:10:00,65.3,57.2,29.76,ESE,109,0.0,0.0,75,0.00,,,0.00,Wunderground v.1.15,2013-05-18 07:10:00,
2013-05-18 02:25:00,65.3,57.2,29.75,SE,128,0.0,0.0,75,0.00,,,0.00,Wunderground v.1.15,2013-05-18 07:25:00,
2013-05-18 02:35:00,65.0,57.2,29.75,ESE,114,0.0,0.0,76,0.00,,,0.00,Wunderground v.1.15,2013-05-18 07:35:00,
2013-05-18 02:45:00,64.8,57.1,29.75,ESE,107,0.0,0.0,76,0.00,,,0.00,Wunderground v.1.15,2013-05-18 07:45:00,
2013-05-18 02:55:00,65.0,57.6,29.74,SE,131,0.0,0.0,77,0.00,,,0.00,Wunderground v.1.15,2013-05-18 07:55:00,
2013-05-18 03:00:00,65.3,57.5,29.74,SE,127,0.0,0.0,76,0.00,,,0.00,Wunderground v.1.15,2013-05-18 08:00:00,
2013-05-18 03:10:00,65.3,57.5,29.74,ESE,120,0.0,0.0,76,0.00,,,0.00,Wunderground v.1.15,2013-05-18 08:10:00,
2013-05-18 03:20:00,65.2,57.4,29.74,ESE,112,0.0,0.0,76,0.00,,,0.00,Wunderground v.1.15,2013-05-18 08:20:00,
2013-05-18 03:30:00,64.8,57.4,29.74,SE,128,0.0,0.0,77,0.00,,,0.00,Wunderground v.1.15,2013-05-18 08:30:00,
2013-05-18 03:40:00,64.7,57.3,29.74,SE,124,0.0,0.0,77,0.00,,,0.00,Wunderground v.1.15,2013-05-18 08:40:00,
2013-05-18 03:45:00,64.5,57.5,29.74,SE,124,0.0,0.0,78,0.00,,,0.00,Wunderground v.1.15,2013-05-18 08:45:00,
2013-05-18 03:55:00,64.3,57.3,29.74,SE,124,0.0,0.0,78,0.00,,,0.00,Wunderground v.1.15,2013-05-18 08:55:00,
2013-05-18 04:05:00,64.2,57.2,29.74,ESE,123,0.0,0.0,78,0.00,,,0.00,Wunderground v.1.15,2013-05-18 09:05:00,
2013-05-18 04:15:00,64.0,57.4,29.74,ESE,123,0.0,0.0,79,0.00,,,0.00,Wunderground v.1.15,2013-05-18 09:15:00,
2013-05-18 04:25:00,64.2,57.5,29.73,ESE,114,0.0,0.0,79,0.00,,,0.00,Wunderground v.1.15,2013-05-18 09:25:00,
2013-05-18 04:35:00,64.2,57.2,29.73,ESE,112,0.0,0.0,78,0.00,,,0.00,Wunderground v.1.15,2013-05-18 09:35:00,
2013-05-18 04:40:00,63.9,57.3,29.73,ESE,112,0.0,0.0,79,0.00,,,0.00,Wunderground v.1.15,2013-05-18 09:40:00,
2013-05-18 04:50:00,63.5,56.9,29.73,ESE,106,0.0,0.0,79,0.00,,,0.00,Wunderground v.1.15,2013-05-18 09:50:00,
2013-05-18 05:00:00,63.4,57.1,29.73,East,97,0.0,0.0,80,0.00,,,0.00,Wunderground v.1.15,2013-05-18 10:00:00,
2013-05-18 05:10:00,63.4,57.1,29.73,East,97,0.0,0.0,80,0.00,,,0.00,Wunderground v.1.15,2013-05-18 10:10:00,
2013-05-18 05:20:00,63.1,56.8,29.73,East,97,0.0,0.0,80,0.00,,,0.00,Wunderground v.1.15,2013-05-18 10:20:00,
2013-05-18 05:25:00,63.1,56.8,29.73,East,97,0.0,0.0,80,0.00,,,0.00,Wunderground v.1.15,2013-05-18 10:25:00,
2013-05-18 05:35:00,63.1,56.8,29.73,SE,124,0.0,0.0,80,0.00,,,0.00,Wunderground v.1.15,2013-05-18 10:35:00,
2013-05-18 05:45:00,63.2,56.9,29.73,ESE,107,0.0,0.0,80,0.00,,,0.00,Wunderground v.1.15,2013-05-18 10:45:00,
2013-05-18 05:55:00,63.1,56.8,29.73,ESE,110,0.0,0.0,80,0.00,,,0.00,Wunderground v.1.15,2013-05-18 10:55:00,
2013-05-18 06:00:00,63.1,56.8,29.73,ESE,109,0.0,0.0,80,0.00,,,0.00,Wunderground v.1.15,2013-05-18 11:00:00,
2013-05-18 06:10:00,63.1,56.8,29.73,ESE,109,0.0,0.0,80,0.00,,,0.00,Wunderground v.1.15,2013-05-18 11:10:00,
2013-05-18 06:20:00,63.2,56.9,29.74,SE,141,0.0,0.0,80,0.00,,,0.00,Wunderground v.1.15,2013-05-18 11:20:00,
2013-05-18 06:30:00,63.2,56.9,29.74,ESE,120,0.0,0.0,80,0.00,,,0.00,Wunderground v.1.15,2013-05-18 11:30:00,
2013-05-18 06:40:00,63.4,57.1,29.75,ESE,120,0.0,0.0,80,0.00,,,0.00,Wunderground v.1.15,2013-05-18 11:40:00,
2013-05-18 06:45:00,63.5,57.2,29.75,ESE,120,0.0,0.0,80,0.00,,,0.00,Wunderground v.1.15,2013-05-18 11:45:00,
2013-05-18 06:55:00,64.0,57.7,29.75,East,99,0.0,0.0,80,0.00,,,0.00,Wunderground v.1.15,2013-05-18 11:55:00,
2013-05-18 07:00:00,64.3,58.0,29.75,ESE,102,0.0,0.0,80,0.00,,,0.00,Wunderground v.1.15,2013-05-18 12:00:00,
2013-05-18 07:10:00,65.2,58.5,29.74,East,100,0.0,0.0,79,0.00,,,0.00,Wunderground v.1.15,2013-05-18 12:10:00,
2013-05-18 07:20:00,66.0,58.9,29.75,East,100,0.0,0.0,78,0.00,,,0.00,Wunderground v.1.15,2013-05-18 12:20:00,
2013-05-18 07:30:00,66.6,59.2,29.75,SE,144,0.0,0.0,77,0.00,,,0.00,Wunderground v.1.15,2013-05-18 12:30:00,
2013-05-18 07:40:00,67.4,59.9,29.75,SE,140,0.0,0.0,77,0.00,,,0.00,Wunderground v.1.15,2013-05-18 12:40:00,
2013-05-18 07:45:00,67.6,59.8,29.75,ESE,120,0.0,0.0,76,0.00,,,0.00,Wunderground v.1.15,2013-05-18 12:45:00,
2013-05-18 07:55:00,67.9,60.1,29.74,ESE,104,0.0,0.0,76,0.00,,,0.00,Wunderground v.1.15,2013-05-18 12:55:00,
2013-05-18 08:00:00,68.1,60.2,29.74,ESE,102,0.0,0.0,76,0.00,,,0.00,Wunderground v.1.15,2013-05-18 13:00:00,
2013-05-18 08:10:00,68.6,60.4,29.74,ESE,109,0.0,0.0,75,0.00,,,0.00,Wunderground v.1.15,2013-05-18 13:10:00,
2013-05-18 08:20:00,69.4,60.8,29.74,ESE,112,0.0,0.0,74,0.00,,,0.00,Wunderground v.1.15,2013-05-18 13:20:00,
2013-05-18 08:25:00,70.4,61.3,29.74,East,90,0.0,0.0,73,0.00,,,0.00,Wunderground v.1.15,2013-05-18 13:25:00,
2013-05-18 08:35:00,71.5,61.6,29.73,SE,127,0.0,0.0,71,0.00,,,0.00,Wunderground v.1.15,2013-05-18 13:35:00,
2013-05-18 08:40:00,72.0,62.1,29.73,East,95,0.0,0.0,71,0.00,,,0.00,Wunderground v.1.15,2013-05-18 13:40:00,
2013-05-18 08:50:00,73.0,62.2,29.73,East,88,0.0,0.0,69,0.00,,,0.00,Wunderground v.1.15,2013-05-18 13:50:00,
2013-05-18 09:00:00,73.7,62.5,29.73,ESE,106,0.0,0.0,68,0.00,,,0.00,Wunderground v.1.15,2013-05-18 14:00:00,
2013-05-18 09:10:00,74.0,62.3,29.73,ESE,103,0.0,0.0,67,0.00,,,0.00,Wunderground v.1.15,2013-05-18 14:10:00,
2013-05-18 09:15:00,74.4,62.7,29.73,ESE,123,0.0,0.0,67,0.00,,,0.00,Wunderground v.1.15,2013-05-18 14:15:00,
2013-05-18 09:25:00,75.3,62.7,29.73,SE,130,0.0,0.0,65,0.00,,,0.00,Wunderground v.1.15,2013-05-18 14:25:00,
2013-05-18 09:35:00,76.1,63.0,29.72,ESE,106,0.0,0.0,64,0.00,,,0.00,Wunderground v.1.15,2013-05-18 14:35:00,
2013-05-18 09:45:00,76.5,63.0,29.72,ESE,120,0.0,0.0,63,0.00,,,0.00,Wunderground v.1.15,2013-05-18 14:45:00,
2013-05-18 09:50:00,76.7,63.2,29.71,ESE,117,0.0,0.0,63,0.00,,,0.00,Wunderground v.1.15,2013-05-18 14:50:00,
2013-05-18 10:00:00,77.6,63.1,29.71,ESE,106,0.0,0.0,61,0.00,,,0.00,Wunderground v.1.15,2013-05-18 15:00:00,
2013-05-18 10:10:00,78.6,63.6,29.71,ENE,64,0.0,0.0,60,0.00,,,0.00,Wunderground v.1.15,2013-05-18 15:10:00,
2013-05-18 10:15:00,78.6,63.1,29.71,East,92,0.0,0.0,59,0.00,,,0.00,Wunderground v.1.15,2013-05-18 15:15:00,
2013-05-18 10:25:00,79.6,63.0,29.71,East,92,0.0,0.0,57,0.00,,,0.00,Wunderground v.1.15,2013-05-18 15:25:00,
2013-05-18 10:35:00,80.1,63.0,29.70,SE,144,0.0,0.0,56,0.00,,,0.00,Wunderground v.1.15,2013-05-18 15:35:00,
2013-05-18 10:45:00,80.1,62.5,29.70,SE,144,0.0,0.0,55,0.00,,,0.00,Wunderground v.1.15,2013-05-18 15:45:00,
2013-05-18 10:50:00,80.1,63.0,29.70,ESE,103,0.0,0.0,56,0.00,,,0.00,Wunderground v.1.15,2013-05-18 15:50:00,
2013-05-18 11:00:00,81.1,62.9,29.70,SE,144,0.0,0.0,54,0.00,,,0.00,Wunderground v.1.15,2013-05-18 16:00:00,
2013-05-18 11:10:00,79.9,62.3,29.71,SSE,162,0.0,0.0,55,0.00,,,0.00,Wunderground v.1.15,2013-05-18 16:10:00,
2013-05-18 11:15:00,79.8,62.2,29.71,SSE,158,0.0,0.0,55,0.00,,,0.00,Wunderground v.1.15,2013-05-18 16:15:00,
2013-05-18 11:25:00,79.6,62.5,29.71,SSE,161,0.0,0.0,56,0.00,,,0.00,Wunderground v.1.15,2013-05-18 16:25:00,
2013-05-18 11:35:00,79.8,62.2,29.72,SE,145,0.0,0.0,55,0.00,,,0.00,Wunderground v.1.15,2013-05-18 16:35:00,
2013-05-18 11:40:00,79.9,62.3,29.72,East,99,0.0,0.0,55,0.00,,,0.00,Wunderground v.1.15,2013-05-18 16:40:00,
2013-05-18 11:50:00,79.9,62.3,29.71,East,100,0.0,0.0,55,0.00,,,0.00,Wunderground v.1.15,2013-05-18 16:50:00,
2013-05-18 12:00:00,80.9,63.2,29.71,SE,145,0.0,0.0,55,0.00,,,0.00,Wunderground v.1.15,2013-05-18 17:00:00,
2013-05-18 12:10:00,81.4,62.6,29.69,ESE,110,0.0,0.0,53,0.00,,,0.00,Wunderground v.1.15,2013-05-18 17:10:00,
2013-05-18 12:15:00,81.8,63.0,29.69,ESE,102,0.0,0.0,53,0.00,,,0.00,Wunderground v.1.15,2013-05-18 17:15:00,
2013-05-18 12:25:00,81.4,62.6,29.69,South,172,0.0,0.0,53,0.00,,,0.00,Wunderground v.1.15,2013-05-18 17:25:00,
2013-05-18 12:35:00,81.1,62.3,29.69,East,86,0.0,0.0,53,0.00,,,0.00,Wunderground v.1.15,2013-05-18 17:35:00,
2013-05-18 12:45:00,80.9,62.7,29.69,SSE,150,0.0,0.0,54,0.00,,,0.00,Wunderground v.1.15,2013-05-18 17:45:00,
2013-05-18 12:55:00,81.1,62.9,29.70,ESE,113,0.0,0.0,54,0.00,,,0.00,Wunderground v.1.15,2013-05-18 17:55:00,
2013-05-18 13:00:00,80.7,62.0,29.70,SSE,158,0.0,0.0,53,0.00,,,0.00,Wunderground v.1.15,2013-05-18 18:00:00,
2013-05-18 13:10:00,80.5,62.3,29.69,SSE,158,0.0,0.0,54,0.00,,,0.00,Wunderground v.1.15,2013-05-18 18:10:00,
2013-05-18 13:20:00,80.7,62.5,29.69,SE,143,0.0,0.0,54,0.00,,,0.00,Wunderground v.1.15,2013-05-18 18:20:00,
2013-05-18 13:30:00,80.7,63.0,29.69,ESE,110,0.0,0.0,55,0.00,,,0.00,Wunderground v.1.15,2013-05-18 18:30:00,
2013-05-18 13:35:00,81.1,63.4,29.69,South,174,0.0,0.0,55,0.00,,,0.00,Wunderground v.1.15,2013-05-18 18:35:00,
2013-05-18 13:45:00,80.7,63.0,29.69,ESE,103,0.0,0.0,55,0.00,,,0.00,Wunderground v.1.15,2013-05-18 18:45:00,
2013-05-18 13:55:00,80.9,63.2,29.68,SE,137,0.0,0.0,55,0.00,,,0.00,Wunderground v.1.15,2013-05-18 18:55:00,
2013-05-18 14:05:00,81.2,63.0,29.68,SE,138,0.0,0.0,54,0.00,,,0.00,Wunderground v.1.15,2013-05-18 19:05:00,
2013-05-18 14:15:00,81.2,63.0,29.68,SE,126,0.0,0.0,54,0.00,,,0.00,Wunderground v.1.15,2013-05-18 19:15:00,
2013-05-18 14:20:00,81.6,63.3,29.68,SE,130,0.0,0.0,54,0.00,,,0.00,Wunderground v.1.15,2013-05-18 19:20:00,
2013-05-18 14:30:00,82.4,63.5,29.68,SE,136,0.0,0.0,53,0.00,,,0.00,Wunderground v.1.15,2013-05-18 19:30:00,
2013-05-18 14:40:00,82.8,63.9,29.68,South,191,0.0,0.0,53,0.00,,,0.00,Wunderground v.1.15,2013-05-18 19:40:00,
2013-05-18 14:45:00,83.2,63.7,29.68,SE,138,0.0,0.0,52,0.00,,,0.00,Wunderground v.1.15,2013-05-18 19:45:00,
2013-05-18 14:55:00,83.2,63.7,29.67,SE,140,0.0,0.0,52,0.00,,,0.00,Wunderground v.1.15,2013-05-18 19:55:00,
2013-05-18 15:05:00,83.2,63.7,29.66,South,178,0.0,0.0,52,0.00,,,0.00,Wunderground v.1.15,2013-05-18 20:05:00,
2013-05-18 15:15:00,83.6,63.6,29.66,SE,145,0.0,0.0,51,0.00,,,0.00,Wunderground v.1.15,2013-05-18 20:15:00,
2013-05-18 15:25:00,83.2,63.2,29.65,SE,143,0.0,0.0,51,0.00,,,0.00,Wunderground v.1.15,2013-05-18 20:25:00,
2013-05-18 15:30:00,83.2,63.7,29.65,SSE,147,0.0,0.0,52,0.00,,,0.00,Wunderground v.1.15,2013-05-18 20:30:00,
2013-05-18 15:40:00,84.0,64.5,29.64,South,178,0.0,0.0,52,0.00,,,0.00,Wunderground v.1.15,2013-05-18 20:40:00,
2013-05-18 15:50:00,83.8,64.3,29.63,South,172,0.0,0.0,52,0.00,,,0.00,Wunderground v.1.15,2013-05-18 20:50:00,
2013-05-18 16:00:00,84.3,64.2,29.63,SE,130,0.0,0.0,51,0.00,,,0.00,Wunderground v.1.15,2013-05-18 21:00:00,
2013-05-18 16:05:00,84.5,64.4,29.62,SE,130,0.0,0.0,51,0.00,,,0.00,Wunderground v.1.15,2013-05-18 21:05:00,
2013-05-18 16:15:00,84.5,64.9,29.62,SSE,154,0.0,0.0,52,0.00,,,0.00,Wunderground v.1.15,2013-05-18 21:15:00,
2013-05-18 16:25:00,84.3,64.2,29.63,SE,128,0.0,0.0,51,0.00,,,0.00,Wunderground v.1.15,2013-05-18 21:25:00,
2013-05-18 16:35:00,84.3,64.8,29.63,ESE,113,0.0,0.0,52,0.00,,,0.00,Wunderground v.1.15,2013-05-18 21:35:00,
2013-05-18 16:45:00,83.6,64.1,29.63,SE,130,0.0,0.0,52,0.00,,,0.00,Wunderground v.1.15,2013-05-18 21:45:00,
2013-05-18 16:55:00,83.4,64.5,29.63,ESE,121,0.0,0.0,53,0.00,,,0.00,Wunderground v.1.15,2013-05-18 21:55:00,
2013-05-18 17:00:00,83.4,64.5,29.63,ESE,121,0.0,0.0,53,0.00,,,0.00,Wunderground v.1.15,2013-05-18 22:00:00,
2013-05-18 17:10:00,84.1,65.1,29.62,ESE,116,0.0,0.0,53,0.00,,,0.00,Wunderground v.1.15,2013-05-18 22:10:00,
2013-05-18 17:20:00,85.1,65.5,29.61,East,100,0.0,0.0,52,0.00,,,0.00,Wunderground v.1.15,2013-05-18 22:20:00,
2013-05-18 17:30:00,84.7,65.1,29.61,SE,126,0.0,0.0,52,0.00,,,0.00,Wunderground v.1.15,2013-05-18 22:30:00,
2013-05-18 17:40:00,83.8,64.8,29.61,SSE,158,0.0,0.0,53,0.00,,,0.00,Wunderground v.1.15,2013-05-18 22:40:00,
2013-05-18 17:45:00,83.8,64.8,29.61,SE,138,0.0,0.0,53,0.00,,,0.00,Wunderground v.1.15,2013-05-18 22:45:00,
2013-05-18 17:55:00,84.3,65.3,29.61,SE,131,0.0,0.0,53,0.00,,,0.00,Wunderground v.1.15,2013-05-18 22:55:00,
2013-05-18 18:05:00,84.9,65.3,29.60,ESE,109,0.0,0.0,52,0.00,,,0.00,Wunderground v.1.15,2013-05-18 23:05:00,
2013-05-18 18:10:00,84.3,64.8,29.60,East,90,0.0,0.0,52,0.00,,,0.00,Wunderground v.1.15,2013-05-18 23:10:00,
2013-05-18 18:20:00,83.8,65.9,29.59,ESE,103,0.0,0.0,55,0.00,,,0.00,Wunderground v.1.15,2013-05-18 23:20:00,
2013-05-18 18:30:00,83.8,65.4,29.59,ESE,110,0.0,0.0,54,0.00,,,0.00,Wunderground v.1.15,2013-05-18 23:30:00,
2013-05-18 18:40:00,83.8,65.9,29.58,SSE,150,0.0,0.0,55,0.00,,,0.00,Wunderground v.1.15,2013-05-18 23:40:00,
2013-05-18 18:45:00,83.8,65.9,29.58,SE,131,0.0,0.0,55,0.00,,,0.00,Wunderground v.1.15,2013-05-18 23:45:00,
2013-05-18 18:55:00,83.4,66.1,29.57,ESE,112,0.0,0.0,56,0.00,,,0.00,Wunderground v.1.15,2013-05-18 23:55:00,
2013-05-18 19:05:00,82.8,66.0,29.57,ESE,104,0.0,0.0,57,0.00,,,0.00,Wunderground v.1.15,2013-05-19 00:05:00,
2013-05-18 19:15:00,82.4,66.1,29.57,SSE,155,0.0,0.0,58,0.00,,,0.00,Wunderground v.1.15,2013-05-19 00:15:00,
2013-05-18 19:25:00,82.4,66.1,29.56,SSE,154,0.0,0.0,58,0.00,,,0.00,Wunderground v.1.15,2013-05-19 00:25:00,
2013-05-18 19:30:00,82.4,66.1,29.56,SE,130,0.0,0.0,58,0.00,,,0.00,Wunderground v.1.15,2013-05-19 00:30:00,
2013-05-18 19:40:00,82.0,66.3,29.57,SE,144,0.0,0.0,59,0.00,,,0.00,Wunderground v.1.15,2013-05-19 00:40:00,
2013-05-18 19:50:00,81.6,66.4,29.57,SE,141,0.0,0.0,60,0.00,,,0.00,Wunderground v.1.15,2013-05-19 00:50:00,
2013-05-18 20:00:00,81.2,66.5,29.57,SSE,150,0.0,0.0,61,0.00,,,0.00,Wunderground v.1.15,2013-05-19 01:00:00,
2013-05-18 20:10:00,80.7,66.5,29.56,SSE,151,0.0,0.0,62,0.00,,,0.00,Wunderground v.1.15,2013-05-19 01:10:00,
2013-05-18 20:15:00,80.5,66.3,29.56,SE,128,0.0,0.0,62,0.00,,,0.00,Wunderground v.1.15,2013-05-19 01:15:00,
2013-05-18 20:25:00,80.1,66.4,29.56,SSE,155,0.0,0.0,63,0.00,,,0.00,Wunderground v.1.15,2013-05-19 01:25:00,
2013-05-18 20:35:00,79.6,66.3,29.56,SE,140,0.0,0.0,64,0.00,,,0.00,Wunderground v.1.15,2013-05-19 01:35:00,
2013-05-18 20:45:00,79.0,66.2,29.56,ESE,102,0.0,0.0,65,0.00,,,0.00,Wunderground v.1.15,2013-05-19 01:45:00,
2013-05-18 20:55:00,78.6,65.8,29.54,SE,143,2.0,10.0,65,0.00,,,0.00,Wunderground v.1.15,2013-05-19 01:55:00,
2013-05-18 21:00:00,78.5,66.2,29.54,East,96,5.0,6.0,66,0.00,,,0.00,Wunderground v.1.15,2013-05-19 02:00:00,
2013-05-18 21:10:00,78.5,66.2,29.54,SSE,155,8.0,9.0,66,0.00,,,0.00,Wunderground v.1.15,2013-05-19 02:10:00,
2013-05-18 21:20:00,78.1,66.2,29.53,SSE,155,7.0,16.0,67,0.00,,,0.00,Wunderground v.1.15,2013-05-19 02:20:00,
2013-05-18 21:30:00,77.9,66.1,29.53,ESE,116,8.0,16.0,67,0.00,,,0.00,Wunderground v.1.15,2013-05-19 02:30:00,
2013-05-18 21:35:00,77.9,66.1,29.55,SSE,152,8.0,16.0,67,0.00,,,0.00,Wunderground v.1.15,2013-05-19 02:35:00,
2013-05-18 21:45:00,77.6,66.2,29.55,SE,134,7.0,16.0,68,0.00,,,0.00,Wunderground v.1.15,2013-05-19 02:45:00,
2013-05-18 21:55:00,77.4,66.4,29.56,SE,141,7.0,16.0,69,0.00,,,0.00,Wunderground v.1.15,2013-05-19 02:55:00,
2013-05-18 22:05:00,77.4,66.4,29.56,ESE,123,7.0,16.0,69,0.00,,,0.00,Wunderground v.1.15,2013-05-19 03:05:00,
2013-05-18 22:10:00,77.4,66.4,29.56,SE,145,8.0,8.0,69,0.00,,,0.00,Wunderground v.1.15,2013-05-19 03:10:00,
2013-05-18 22:20:00,77.4,66.4,29.55,ESE,107,7.0,16.0,69,0.00,,,0.00,Wunderground v.1.15,2013-05-19 03:20:00,
2013-05-18 22:30:00,77.2,66.2,29.55,ESE,106,8.0,8.0,69,0.00,,,0.00,Wunderground v.1.15,2013-05-19 03:30:00,
2013-05-18 22:40:00,77.0,66.5,29.55,SE,141,7.0,16.0,70,0.00,,,0.00,Wunderground v.1.15,2013-05-19 03:40:00,
2013-05-18 22:45:00,77.0,66.5,29.55,SSE,161,7.0,16.0,70,0.00,,,0.00,Wunderground v.1.15,2013-05-19 03:45:00,
2013-05-18 22:55:00,77.0,66.5,29.55,SE,133,7.0,15.0,70,0.00,,,0.00,Wunderground v.1.15,2013-05-19 03:55:00,
2013-05-18 23:05:00,77.0,66.5,29.55,ESE,104,8.0,15.0,70,0.00,,,0.00,Wunderground v.1.15,2013-05-19 04:05:00,
2013-05-18 23:10:00,76.8,66.7,29.55,SE,145,7.0,15.0,71,0.00,,,0.00,Wunderground v.1.15,2013-05-19 04:10:00,
2013-05-18 23:15:00,76.8,66.7,29.55,SSE,157,7.0,15.0,71,0.00,,,0.00,Wunderground v.1.15,2013-05-19 04:15:00,
2013-05-18 23:20:00,76.8,66.7,29.57,SSE,165,8.0,18.0,71,0.00,,,0.00,Wunderground v.1.15,2013-05-19 04:20:00,
2013-05-18 23:25:00,76.8,66.7,29.57,SSE,150,9.0,18.0,71,0.00,,,0.00,Wunderground v.1.15,2013-05-19 04:25:00,
2013-05-18 23:30:00,76.8,67.1,29.57,SSE,150,9.0,18.0,72,0.00,,,0.00,Wunderground v.1.15,2013-05-19 04:30:00,
2013-05-18 23:40:00,76.7,67.0,29.59,SSW,192,7.0,18.0,72,0.00,,,0.00,Wunderground v.1.15,2013-05-19 04:40:00,
2013-05-18 23:45:00,76.7,67.0,29.59,SE,136,6.0,18.0,72,0.00,,,0.00,Wunderground v.1.15,2013-05-19 04:45:00,
2013-05-18 23:50:00,76.3,67.0,29.59,SSW,205,6.0,17.0,73,0.00,,,0.00,Wunderground v.1.15,2013-05-19 04:50:00,